User: anonymous   Login
Location: Bergnershof
(48.9468°N, 10.9431°E)
Time: 02:38:45
(UTC+00:00)
Language:

H-2A R/B - Orbit

View from above orbital plane
View from above orbital plane
View from above satellite
View from above satellite

Ground track
Ground track

The orbit data is extracted from the following two-line orbital elements,

1 27601U 02056E   21127.61017475 -.00000017  00000-0  85618-5 0  9995
2 27601  98.1927 152.1040 0072796  32.6634  77.0315 14.31991545961081
Epoch (UTC): 07 May 2021 14:38:39
Eccentricity: 0.0072796
inclination: 98.1927°
perigee height: 733 km
apogee height: 837 km
right ascension of ascending node: 152.1040°
argument of perigee: 32.6634°
revolutions per day: 14.31991545
mean anomaly at epoch: 77.0315°
orbit number at epoch: 96108

The dashed part of the orbit path shows where the satellite is in the earth's shadow,  

DLR